�������C�����ː����j�^�v���󋵏��
Date,Time,Cs137(Bq/L),Cs134(Bq/L),�S��(Bq/L)
2018/05/31,00:00,0.20,ND,11
2018/05/31,00:10,0.20,ND,9.0
2018/05/31,00:20,0.20,ND,9.9
2018/05/31,00:30,0.19,ND,10
2018/05/31,00:40,0.17,ND,ND
2018/05/31,00:50,0.19,ND,9.9
2018/05/31,01:00,0.17,ND,ND
2018/05/31,01:10,0.18,ND,ND
2018/05/31,01:20,0.19,ND,ND
2018/05/31,01:30,0.19,ND,ND
2018/05/31,01:40,0.17,ND,ND
2018/05/31,01:50,0.16,ND,ND
2018/05/31,02:00,0.16,ND,ND
2018/05/31,02:10,0.15,ND,ND
2018/05/31,02:20,0.15,ND,ND
2018/05/31,02:30,0.15,ND,ND
2018/05/31,02:40,0.16,ND,ND
2018/05/31,02:50,0.16,ND,ND
2018/05/31,03:00,0.17,ND,ND
2018/05/31,03:10,0.17,ND,ND
2018/05/31,03:20,0.16,ND,ND
2018/05/31,03:30,0.16,ND,ND
2018/05/31,03:40,0.17,ND,ND
2018/05/31,03:50,0.17,ND,ND
2018/05/31,04:00,0.17,ND,10
2018/05/31,04:10,0.18,ND,13
2018/05/31,04:20,0.18,ND,14
2018/05/31,04:30,0.18,ND,13
2018/05/31,04:40,0.17,ND,12
2018/05/31,04:50,0.16,ND,9.0
2018/05/31,05:00,0.17,ND,ND
2018/05/31,05:10,0.16,ND,ND
2018/05/31,05:20,0.16,ND,ND
2018/05/31,05:30,0.14,ND,ND
2018/05/31,05:40,0.15,ND,ND
2018/05/31,05:50,0.16,ND,ND
2018/05/31,06:00,0.16,ND,ND
2018/05/31,06:10,0.16,ND,ND
2018/05/31,06:20,0.16,ND,ND
2018/05/31,06:30,0.17,ND,ND
2018/05/31,06:40,0.16,ND,ND
2018/05/31,06:50,0.14,ND,ND
2018/05/31,07:00,0.13,ND,ND
2018/05/31,07:10,0.13,ND,ND
2018/05/31,07:20,0.13,ND,ND
2018/05/31,07:30,0.13,ND,ND
2018/05/31,07:40,0.13,ND,ND
2018/05/31,07:50,0.12,ND,ND
2018/05/31,08:00,0.12,ND,ND
2018/05/31,08:10,0.11,ND,9.5
2018/05/31,08:20,0.10,ND,ND
2018/05/31,08:30,0.13,ND,ND
2018/05/31,08:40,0.13,ND,ND
2018/05/31,08:50,0.13,ND,ND
2018/05/31,09:00,0.12,ND,ND
2018/05/31,09:10,0.12,ND,ND
2018/05/31,09:20,0.12,ND,12
2018/05/31,09:30,0.073,ND,13
2018/05/31,09:40,0.072,ND,10
2018/05/31,09:50,0.079,ND,ND
2018/05/31,10:00,0.10,ND,ND
2018/05/31,10:10,0.097,ND,ND
2018/05/31,10:20,0.10,ND,ND
2018/05/31,10:30,0.12,ND,ND
2018/05/31,10:40,0.13,ND,ND
2018/05/31,10:50,0.11,ND,ND
2018/05/31,11:00,0.10,ND,ND
2018/05/31,11:10,0.099,ND,ND
2018/05/31,11:20,0.11,ND,ND
2018/05/31,11:30,0.11,ND,ND
2018/05/31,11:40,0.12,ND,ND
2018/05/31,11:50,0.11,ND,ND
2018/05/31,12:00,0.12,ND,11
2018/05/31,12:10,0.12,ND,8.8
2018/05/31,12:20,0.11,ND,9.5
2018/05/31,12:30,0.10,ND,ND
2018/05/31,12:40,0.089,ND,ND
2018/05/31,12:50,0.085,ND,ND
2018/05/31,13:00,0.079,ND,ND
2018/05/31,13:10,0.079,ND,ND
2018/05/31,13:20,0.083,ND,ND
2018/05/31,13:30,0.10,ND,ND
2018/05/31,13:40,0.091,ND,ND
2018/05/31,13:50,0.088,ND,ND
2018/05/31,14:00,0.090,ND,ND
2018/05/31,14:10,0.087,ND,ND
2018/05/31,14:20,0.093,ND,ND
2018/05/31,14:30,0.069,ND,ND
2018/05/31,14:40,0.084,ND,ND
2018/05/31,14:50,0.089,ND,ND
2018/05/31,15:00,0.076,ND,ND
2018/05/31,15:10,0.096,ND,ND
2018/05/31,15:20,0.10,ND,ND
2018/05/31,15:30,0.11,ND,ND
2018/05/31,15:40,0.10,ND,ND
2018/05/31,15:50,0.097,ND,ND
2018/05/31,16:00,0.12,ND,ND
2018/05/31,16:10,0.11,ND,ND
2018/05/31,16:20,0.099,ND,ND
2018/05/31,16:30,0.073,ND,ND
2018/05/31,16:40,0.072,ND,ND
2018/05/31,16:50,0.074,ND,ND
2018/05/31,17:00,0.073,ND,ND
2018/05/31,17:10,0.053,ND,11
2018/05/31,17:20,0.063,ND,9.6
2018/05/31,17:30,0.081,ND,9.6
2018/05/31,17:40,0.095,ND,10
2018/05/31,17:50,0.11,ND,10
2018/05/31,18:00,0.11,ND,9.3
2018/05/31,18:10,0.13,ND,ND
2018/05/31,18:20,0.13,ND,ND
2018/05/31,18:30,0.15,ND,ND
2018/05/31,18:40,0.14,ND,ND
2018/05/31,18:50,0.12,ND,ND
2018/05/31,19:00,0.13,ND,ND
2018/05/31,19:10,0.13,ND,ND
2018/05/31,19:20,0.14,ND,ND
2018/05/31,19:30,0.12,ND,ND
2018/05/31,19:40,0.14,ND,ND
2018/05/31,19:50,0.15,ND,9.2
2018/05/31,20:00,0.15,ND,9.0
2018/05/31,20:10,0.14,ND,ND
2018/05/31,20:20,0.13,ND,ND
2018/05/31,20:30,0.16,ND,ND
2018/05/31,20:40,0.14,ND,ND
2018/05/31,20:50,0.16,ND,ND
2018/05/31,21:00,0.16,ND,ND
2018/05/31,21:10,0.17,ND,ND
2018/05/31,21:20,0.16,ND,ND
2018/05/31,21:30,0.16,ND,ND
2018/05/31,21:40,0.18,ND,ND
2018/05/31,21:50,0.18,ND,ND
2018/05/31,22:00,0.18,ND,ND
2018/05/31,22:10,0.18,ND,ND
2018/05/31,22:20,0.19,ND,ND
2018/05/31,22:30,0.19,ND,ND
2018/05/31,22:40,0.18,ND,ND
2018/05/31,22:50,0.18,ND,ND
2018/05/31,23:00,0.19,ND,10
2018/05/31,23:10,0.21,ND,ND
2018/05/31,23:20,0.21,ND,ND
2018/05/31,23:30,0.21,ND,ND
2018/05/31,23:40,0.22,ND,ND
2018/05/31,23:50,0.24,ND,ND
